Theta_e
350 346 339 337 337 336 336 333 334 332 326 319 316 315 315 315 315 315 315 316 316 315 313 312 311 311 311 311 311 310 310 310 310 310 310 310 310 310 310 311 310 312 312 316 328 333 332 331 331 331 332 332 333 334 334 336 336 337 337 336 336 336 336 336 336 336 336 336 336 335 335 334 333 331 331 332 332 332 333 334 334 334 334 335 334
348 341 338 337 336 336 335 334 334 332 326 319 316 315 315 315 315 315 315 316 315 314 313 312 311 311 311 311 310 310 310 311 311 311 311 310 310 311 310 311 310 311 312 315 324 330 332 331 330 330 332 333 333 334 335 335 336 336 336 336 336 336 336 336 336 336 336 337 336 335 334 333 331 329 329 330 332 332 333 334 334 335 335 335 334
344 339 338 337 336 336 334 335 334 332 326 319 316 315 315 315 315 315 315 316 315 314 313 312 311 311 311 311 311 311 311 312 312 312 311 310 310 311 310 310 310 311 312 315 323 327 329 329 328 328 331 332 333 334 334 335 335 335 335 335 335 335 336 336 335 334 334 335 334 333 329 327 326 325 325 327 330 331 332 333 333 334 334 334 335
342 339 337 337 336 335 334 335 335 332 326 319 316 315 315 314 315 315 315 316 315 314 313 312 312 312 311 311 311 311 312 312 312 313 312 311 311 310 310 310 310 311 313 316 323 326 326 326 326 328 330 331 332 333 334 335 335 335 335 335 335 334 333 332 331 331 331 331 331 330 326 321 319 319 320 323 327 328 329 330 332 333 333 334 334
342 339 337 336 336 335 334 336 335 332 326 320 316 315 315 314 314 315 315 315 315 314 313 312 312 312 312 311 311 312 312 313 313 313 313 311 311 311 310 310 310 311 313 317 321 324 325 325 326 328 330 331 331 332 333 334 335 335 334 333 332 331 329 327 326 326 326 327 328 327 323 318 314 314 315 318 321 323 325 327 328 330 330 331 331
342 338 337 336 336 335 335 336 335 332 327 320 316 315 314 314 314 314 314 315 315 315 313 313 312 312 312 312 311 312 313 313 313 313 313 312 311 311 311 310 310 311 313 319 321 322 325 326 327 327 329 330 331 331 332 332 334 334 334 333 331 331 327 322 320 319 319 320 321 320 319 315 312 313 313 314 315 317 321 323 325 327 328 329 327
342 337 336 335 335 336 336 337 334 333 328 321 316 315 316 315 314 314 314 314 315 315 314 313 312 313 312 312 312 312 313 313 313 313 313 312 312 312 311 311 310 311 313 319 322 323 325 327 327 328 328 329 330 330 331 331 331 332 332 331 331 330 323 318 317 317 316 316 316 316 317 315 312 312 312 312 312 313 317 319 323 325 326 325 323
341 336 334 333 334 335 337 337 335 334 330 325 320 319 319 317 315 315 314 314 314 315 315 314 313 313 312 312 312 311 312 313 312 313 313 312 312 312 312 312 310 310 313 318 322 323 325 327 327 328 329 329 330 330 331 330 330 328 327 326 325 323 319 319 320 320 319 317 314 312 313 314 312 311 311 312 312 312 314 316 319 322 322 321 320
339 334 332 333 334 335 337 337 336 334 332 330 327 327 326 323 319 316 315 314 314 314 314 315 314 313 313 312 312 312 312 313 313 312 313 313 313 313 313 312 310 309 313 318 321 323 325 326 328 329 329 330 330 330 330 329 326 324 323 322 322 321 320 322 322 321 319 316 313 311 311 311 311 311 312 311 312 312 312 313 314 318 320 320 321
337 333 332 332 333 336 337 337 336 335 334 333 333 333 332 330 327 323 320 318 316 314 314 315 314 314 313 313 313 312 312 312 312 312 313 313 313 313 313 312 309 309 312 317 321 323 325 327 328 328 329 329 329 330 330 328 324 323 323 323 324 324 323 323 323 320 317 313 310 309 310 310 309 313 315 315 316 317 315 315 316 318 322 325 326
336 332 331 332 334 336 337 338 337 336 335 335 335 334 333 333 332 331 328 326 322 318 315 314 314 314 313 313 313 312 312 312 312 312 313 313 313 313 313 311 310 309 311 315 319 322 324 326 328 328 329 329 330 330 329 326 323 324 325 326 327 326 326 325 321 316 312 310 308 309 310 309 310 316 319 317 319 319 316 317 321 321 323 326 325
335 332 331 331 334 337 338 338 337 337 336 336 336 335 334 334 334 334 333 332 329 326 321 318 316 314 314 314 314 313 311 311 311 312 313 313 313 313 313 312 310 309 310 313 316 320 324 326 328 328 328 329 330 329 327 324 324 326 327 328 328 327 326 324 317 311 309 309 309 309 310 311 312 318 318 317 320 319 318 319 319 320 321 321 320
334 331 331 331 334 338 338 339 338 337 337 337 336 336 336 335 335 334 334 333 332 331 329 326 322 318 316 315 314 313 311 311 311 311 312 313 313 314 313 312 311 309 309 311 313 317 322 326 327 328 328 329 330 330 328 325 325 327 327 328 328 328 323 317 312 309 309 309 309 310 311 311 311 314 314 319 324 320 319 321 320 320 321 320 318
335 330 331 332 335 338 339 339 339 338 337 337 337 337 336 336 336 336 336 334 333 332 332 331 329 324 320 317 316 314 312 311 310 311 312 312 313 314 314 313 312 310 309 310 312 313 320 326 327 327 329 330 331 330 329 327 327 327 328 328 329 328 322 312 309 309 309 309 309 310 310 310 309 310 308 317 323 320 317 320 321 321 321 319 317
336 331 331 332 336 339 340 340 340 339 338 338 337 336 336 336 337 336 337 336 335 334 333 332 330 328 325 321 318 316 314 312 311 311 311 312 313 314 314 313 312 311 309 309 310 312 320 326 327 328 330 331 331 330 329 328 327 327 328 329 329 328 323 314 308 308 309 309 309 310 311 310 310 310 309 314 319 318 316 316 318 319 317 315 315
335 332 331 333 337 339 340 341 340 340 339 339 338 337 336 336 336 336 337 336 336 335 333 332 330 329 328 326 322 318 317 315 312 311 311 312 313 315 315 314 313 313 310 309 309 312 320 326 328 330 331 331 330 329 329 328 327 328 329 330 330 327 324 317 309 307 308 309 309 309 311 311 311 311 311 313 315 314 313 312 312 313 313 313 317
333 331 331 334 337 338 340 341 341 341 341 340 339 338 337 336 336 336 337 337 336 334 332 332 331 330 329 329 326 322 319 318 315 313 312 312 314 316 317 316 314 313 312 309 308 312 321 327 330 331 331 329 327 328 329 328 328 330 331 330 330 328 326 320 312 308 308 308 309 309 310 311 311 312 311 311 311 310 311 311 310 311 315 317 320
331 331 332 334 336 337 339 340 341 341 341 341 341 340 338 337 336 337 337 337 337 333 331 332 331 331 331 330 328 325 322 320 318 316 314 314 316 318 318 317 314 314 313 310 309 313 321 328 331 330 330 329 326 328 330 329 329 330 330 329 329 329 327 323 315 310 309 308 308 308 309 310 311 311 311 311 311 311 311 311 310 311 316 318 316
331 331 332 333 335 337 339 340 341 341 341 341 341 340 339 338 337 337 337 337 336 332 330 331 332 333 333 330 328 325 322 320 320 318 316 316 318 320 320 318 315 315 313 311 310 314 322 328 330 330 330 330 327 328 330 330 330 329 328 328 327 327 326 324 317 312 311 310 309 308 308 308 309 310 311 311 311 311 311 311 311 311 312 312 310
331 331 332 333 334 336 338 338 339 339 340 340 340 340 340 339 337 337 337 337 336 331 330 332 333 335 334 331 329 324 321 320 321 321 320 318 318 320 321 319 317 315 314 312 311 315 323 328 330 330 330 331 330 327 327 330 330 330 329 327 325 324 325 325 320 315 313 312 311 310 309 308 308 309 309 309 310 310 310 310 310 311 311 310 310
331 332 332 333 333 335 336 335 336 336 336 337 338 339 339 338 337 337 337 337 335 331 330 333 336 336 335 334 333 327 322 320 319 322 324 320 319 322 322 321 318 316 315 313 312 314 322 328 329 330 331 331 332 327 324 327 329 330 329 327 323 322 325 325 323 320 316 315 314 312 311 310 309 309 308 308 308 308 309 309 309 310 309 310 310
331 333 333 332 332 333 332 330 330 330 330 332 335 337 338 338 337 337 337 336 333 330 331 335 337 337 336 335 334 330 326 322 319 324 325 321 321 323 323 322 320 318 316 315 313 313 321 328 328 329 331 331 332 328 325 326 328 329 327 324 321 322 325 327 326 323 320 318 316 314 313 312 311 310 309 308 307 307 307 308 308 308 309 309 309
331 330 331 331 330 329 328 327 326 325 325 327 331 334 335 336 336 336 336 334 330 329 332 336 337 336 335 332 331 329 327 325 323 324 323 321 322 323 324 323 321 320 318 317 315 313 318 326 328 328 330 331 330 328 326 326 327 326 324 322 321 322 325 328 328 325 322 321 319 317 315 313 312 311 310 310 309 308 308 308 307 307 308 308 308
333 328 329 330 328 327 327 326 325 324 324 325 328 330 330 332 333 334 334 331 329 330 333 336 337 334 332 331 329 327 326 327 326 325 321 320 321 323 325 323 321 321 320 319 318 316 316 320 324 326 328 330 329 328 327 326 325 323 323 323 323 323 326 328 328 327 325 323 322 320 317 315 314 313 312 311 311 311 310 309 308 308 307 307 307
334 327 328 329 328 327 327 326 325 323 323 323 324 325 325 328 330 332 331 328 329 331 334 336 336 333 332 331 327 325 325 325 326 325 322 320 320 323 324 323 322 321 322 321 320 320 319 318 319 321 326 329 328 328 328 325 323 323 324 325 324 325 327 328 329 329 327 325 324 323 321 318 316 315 314 313 313 312 312 311 310 309 308 308 307
332 327 328 330 328 327 326 325 324 324 323 323 323 323 324 326 328 330 328 327 330 332 334 336 335 333 331 329 326 324 323 324 326 325 324 322 322 325 324 323 322 322 323 323 322 322 323 322 320 320 324 327 328 328 326 324 323 323 325 325 325 326 327 329 329 329 328 327 325 324 323 321 319 317 316 315 314 314 313 313 312 310 310 309 309
333 325 327 328 327 327 326 325 325 324 324 324 324 324 324 326 327 328 327 328 331 332 334 335 334 332 330 328 326 324 324 327 328 326 326 325 324 326 324 322 321 322 323 324 324 324 323 323 323 322 323 325 327 327 325 325 326 326 327 326 326 326 327 328 329 330 328 327 326 325 324 323 321 319 318 317 316 316 315 314 313 312 312 311 310
336 329 331 332 328 327 327 327 326 325 325 325 325 325 325 326 327 327 328 330 332 333 334 334 333 331 329 327 326 326 328 329 330 328 328 328 326 327 326 322 320 320 322 324 325 325 324 323 324 324 323 324 325 326 327 329 329 328 328 327 327 327 327 328 329 329 327 327 326 325 325 324 323 322 320 319 317 316 316 315 314 314 313 312 311
337 334 335 335 331 328 329 328 328 326 326 327 326 325 326 326 326 326 328 330 332 333 333 333 333 331 328 325 325 328 330 330 330 331 331 331 330 330 329 324 320 318 320 324 325 324 324 323 324 324 323 323 323 325 328 330 329 327 328 327 328 328 327 328 329 328 327 327 326 326 325 324 323 322 320 319 318 318 317 317 316 315 313 313 312
338 336 332 331 330 328 330 329 328 327 326 327 327 326 326 326 326 326 328 330 331 332 332 332 332 330 327 324 325 327 330 330 331 332 332 333 332 331 328 323 320 319 320 324 325 324 323 322 323 323 322 321 321 323 327 329 329 328 329 328 328 328 328 329 328 327 328 328 327 326 326 325 323 321 320 319 319 318 317 316 315 314 313 313 312
338 337 334 332 329 326 328 329 328 327 326 327 328 328 328 327 327 326 327 329 330 331 331 330 329 328 325 324 325 326 329 331 332 333 332 332 332 328 324 320 320 320 320 324 325 324 323 322 323 322 321 321 321 322 325 328 329 330 330 329 328 328 329 328 328 328 328 328 327 327 326 325 323 321 320 320 319 317 316 316 315 314 313 312 311
339 336 336 334 329 327 328 328 328 327 326 326 328 329 329 329 329 328 328 328 328 328 328 328 327 326 325 325 327 327 329 330 331 332 332 332 330 326 324 323 322 321 320 321 323 322 321 321 322 323 323 324 323 323 325 328 330 330 330 329 329 329 329 328 328 327 328 328 327 326 326 325 323 321 320 319 318 317 317 316 315 314 313 311 310
338 339 338 335 332 331 330 329 328 327 327 327 328 330 330 330 330 328 328 327 324 325 325 325 325 326 326 327 329 329 329 330 331 332 332 331 329 326 327 327 324 322 319 319 320 319 318 320 321 322 323 324 325 326 328 330 330 330 330 329 329 330 330 329 328 327 327 327 326 325 325 324 322 321 319 319 320 321 321 319 315 313 312 310 309
336 339 337 335 336 335 335 334 332 329 328 328 329 330 330 332 330 328 328 327 325 325 325 326 326 327 327 329 330 330 330 330 331 332 332 331 329 328 329 330 327 323 322 321 321 320 320 321 322 323 324 325 327 329 330 330 330 330 330 330 329 330 329 329 328 326 325 325 325 325 325 324 322 320 320 322 323 324 326 324 316 312 310 309 308
338 339 336 336 338 338 338 337 334 331 330 329 330 330 331 332 332 328 327 328 326 326 326 328 329 329 330 330 330 330 331 331 331 331 332 331 330 330 331 332 330 328 327 327 327 326 326 327 327 328 328 328 329 330 330 330 330 330 330 329 329 329 328 328 327 326 325 325 325 325 325 324 323 321 320 323 324 325 328 325 316 313 313 311 310
339 339 339 339 340 338 338 338 333 330 329 331 331 331 332 332 331 329 327 328 327 326 327 329 331 331 332 331 331 330 331 332 331 331 331 330 330 331 332 332 331 329 329 329 329 329 329 330 330 329 329 329 330 330 330 330 330 330 329 329 329 328 328 327 326 326 326 326 326 326 326 325 325 323 321 323 325 326 328 324 319 319 319 317 317
339 339 340 341 339 337 338 339 336 333 331 333 332 331 332 332 331 330 329 329 328 328 328 330 332 332 332 332 332 331 331 332 331 331 331 329 330 331 332 333 331 330 329 329 328 328 329 330 329 328 328 330 329 330 330 330 330 330 329 329 329 329 327 326 326 327 327 327 327 326 326 326 326 325 323 324 326 327 327 325 323 323 323 322 322
337 339 340 338 336 333 335 338 338 337 336 335 333 332 333 332 331 332 332 331 330 330 329 330 332 332 332 332 332 332 332 332 331 331 331 330 331 331 331 333 332 330 330 330 327 327 330 330 329 327 328 330 330 330 330 330 330 330 329 329 329 329 328 328 328 328 328 327 327 326 326 326 327 326 325 324 325 326 326 326 325 324 325 325 324
334 336 336 334 335 334 334 336 335 334 336 336 335 333 333 332 332 332 333 333 332 332 331 332 333 333 333 332 332 332 332 333 332 332 331 331 332 331 330 332 332 330 330 330 327 327 329 329 329 329 329 330 331 330 330 330 330 330 330 330 330 330 329 329 329 329 328 328 327 327 326 326 327 327 326 323 323 324 325 326 326 325 325 326 326
335 334 333 332 334 334 333 335 332 330 334 336 336 335 334 333 333 333 334 334 334 333 333 334 334 334 333 332 333 333 332 333 332 332 332 332 332 331 329 330 330 329 330 330 328 327 327 327 329 330 330 330 330 331 330 330 330 330 330 330 329 329 329 328 328 328 328 328 327 327 327 327 327 327 326 323 321 322 325 326 326 326 326 326 327
336 333 333 332 334 334 334 336 334 334 336 337 336 336 335 334 333 334 334 335 335 334 334 334 334 334 333 333 333 333 332 333 332 332 332 332 332 332 330 329 329 329 330 330 329 328 327 327 329 331 331 330 330 331 330 330 330 330 330 329 328 329 328 327 327 328 328 328 327 327 327 327 327 327 326 324 322 321 323 325 326 326 325 326 326
335 334 335 335 336 335 334 336 336 336 336 334 333 335 336 335 334 334 334 334 334 334 334 333 333 333 333 332 332 333 332 332 332 332 332 332 332 331 329 328 328 328 329 329 328 329 328 329 330 330 330 330 330 330 330 330 330 330 329 328 328 328 327 327 326 327 328 328 327 326 327 327 326 326 326 325 324 323 322 323 324 325 325 325 325
336 336 337 335 334 334 333 334 335 336 333 326 324 328 333 335 335 334 335 334 333 333 333 333 333 333 333 332 332 332 332 332 332 332 331 332 331 330 328 327 327 327 328 328 327 329 329 329 330 329 329 330 330 330 330 330 330 329 328 327 327 326 326 326 326 327 328 327 327 326 326 327 326 326 326 326 326 325 324 322 321 322 324 324 324
338 336 335 333 332 332 333 334 334 335 333 326 323 326 331 334 333 334 335 334 333 333 333 333 333 333 333 333 332 332 332 332 332 332 331 331 330 328 326 327 328 328 329 328 327 328 329 329 329 328 327 328 329 330 330 330 329 329 328 326 326 325 326 326 325 325 326 326 326 326 325 325 325 325 324 325 325 326 325 322 319 320 322 323 323
338 336 333 332 333 332 333 334 333 333 332 329 327 330 333 334 332 334 335 334 333 334 333 333 332 333 333 332 332 332 332 332 332 332 332 331 330 328 326 326 328 330 330 329 328 328 328 329 328 327 326 326 327 328 329 329 329 329 328 326 326 326 326 325 325 325 325 326 326 326 325 325 325 324 324 324 325 325 325 324 322 321 321 323 324
339 337 334 334 334 334 334 335 333 331 331 331 332 333 333 332 331 332 333 333 333 334 333 332 332 332 332 332 332 332 332 332 331 332 331 330 329 328 327 326 328 330 329 329 329 328 328 328 328 327 326 326 326 327 328 328 329 329 328 327 326 326 326 325 325 325 325 325 325 326 326 325 325 324 324 324 325 325 325 324 324 323 323 324 324
339 336 335 334 335 336 335 336 334 330 328 330 333 335 334 330 328 328 330 331 333 333 332 332 332 332 332 332 332 332 332 331 331 331 331 330 329 329 329 327 328 330 329 329 329 329 328 328 328 328 327 327 327 327 327 328 328 329 328 327 327 326 327 326 325 325 325 324 325 326 326 326 325 324 324 325 325 325 325 324 324 324 324 325 324
338 336 333 332 334 335 335 336 334 329 328 331 333 334 334 331 326 325 329 331 332 333 332 331 332 332 332 332 332 332 332 331 331 330 330 329 329 329 329 329 329 330 330 329 329 329 328 328 328 328 328 327 326 327 328 328 328 328 328 328 327 326 327 327 326 325 324 324 325 326 325 325 325 325 326 326 326 326 325 325 325 325 325 325 325
338 336 332 328 329 332 332 334 333 330 331 335 334 333 332 330 327 326 328 330 332 333 332 331 331 332 332 331 331 331 332 331 330 329 329 329 329 328 329 330 330 330 330 329 328 327 327 327 327 327 327 327 326 327 329 329 328 327 327 328 328 327 327 328 327 325 324 323 325 326 325 326 325 325 326 326 326 326 325 325 325 325 325 325 325
338 336 331 327 326 328 329 331 332 331 333 335 334 332 330 329 327 326 327 330 333 333 332 332 332 331 331 331 331 331 331 330 329 328 328 328 329 328 329 330 330 329 328 327 327 327 328 327 325 325 326 327 327 328 329 329 329 328 327 327 327 327 327 328 327 325 325 324 324 325 325 326 325 325 326 326 325 325 325 325 325 325 325 324 325
337 334 332 330 328 327 327 328 329 330 332 335 333 329 327 327 327 327 328 330 333 333 333 332 332 331 331 331 330 331 330 328 327 328 328 329 330 329 329 330 330 329 327 327 328 328 328 326 324 325 327 327 328 329 329 329 329 328 327 327 327 327 327 327 326 325 325 324 323 324 325 326 325 325 326 326 325 325 325 325 325 325 324 324 324
Wind_Speed
27 29 29 29 27 26 24 23 23 23 22 21 22 22 22 22 22 23 23 22 21 21 20 19 19 18 18 18 17 16 15 14 13 13 13 13 13 13 13 14 15 15 16 19 20 21 20 19 18 18 17 17 18 19 20 20 20 20 19 19 20 20 19 19 18 17 16 16 17 17 17 16 15 14 14 15 16 17 17 17 17 17 17 16 15
31 31 30 29 27 26 25 24 24 23 23 22 23 22 22 22 22 23 24 23 22 21 20 20 20 19 19 18 17 16 15 14 14 14 14 13 14 14 14 14 15 15 16 18 20 20 20 20 19 19 18 18 21 21 21 21 21 20 20 20 21 20 19 19 17 16 15 15 15 15 15 14 13 13 13 13 14 15 17 17 16 17 17 16 15
33 32 30 29 28 27 26 25 24 24 23 23 23 23 22 22 23 24 24 23 22 21 21 21 21 20 20 19 18 17 16 15 14 14 14 13 14 13 13 14 15 16 16 18 20 21 21 20 20 20 19 19 20 20 20 20 20 20 20 20 20 19 19 18 16 15 14 13 12 12 12 11 11 11 11 12 13 14 15 15 15 15 15 15 14
32 32 30 29 28 27 26 25 24 24 24 23 23 23 22 22 23 25 24 23 22 22 21 21 21 20 20 19 18 17 16 15 15 14 13 13 13 13 12 13 15 16 16 18 21 22 22 21 22 22 21 19 19 19 18 18 18 18 18 18 17 17 16 15 14 13 12 11 9 9 10 10 10 11 11 12 12 12 12 13 13 13 13 12 12
30 31 30 29 28 27 27 26 24 24 24 24 23 23 22 22 24 25 24 23 22 22 21 22 21 21 20 19 18 17 16 15 15 13 13 13 13 13 12 13 15 16 17 19 21 22 23 24 23 24 22 20 19 18 18 17 16 16 16 15 15 14 13 13 12 12 11 9 8 7 8 8 9 11 10 11 11 11 12 12 11 11 10 10 10
29 30 31 30 29 28 28 26 25 24 24 24 23 23 23 23 23 24 24 23 22 22 21 21 21 21 20 19 18 17 16 15 15 13 13 13 12 12 12 13 14 16 18 20 22 23 24 24 24 24 23 22 20 19 18 17 16 15 14 13 13 12 13 13 13 13 11 9 7 7 8 8 8 10 10 10 10 10 11 12 11 10 10 9 9
28 30 30 31 30 29 28 26 25 25 24 24 24 23 23 23 23 24 24 23 22 22 21 21 21 21 20 19 18 17 16 16 15 14 13 12 12 11 11 13 14 16 18 20 22 23 24 24 24 23 23 22 20 19 17 16 14 13 12 12 12 12 13 13 13 13 13 12 9 7 6 6 7 9 10 10 9 9 10 10 11 10 9 8 8
29 30 31 31 30 30 29 27 25 25 25 24 24 23 23 22 23 23 23 23 23 22 21 20 20 20 20 19 18 17 16 16 15 14 13 12 12 11 10 12 14 17 18 20 22 22 23 24 24 23 22 21 19 17 15 13 11 11 12 14 14 13 13 13 13 13 13 13 11 8 6 6 7 8 8 8 8 7 8 9 9 9 8 7 6
31 31 31 31 31 31 29 28 26 25 25 24 24 23 22 22 22 22 22 22 22 22 21 20 20 20 20 19 18 17 16 16 16 14 13 12 12 10 10 12 14 17 19 20 21 21 22 23 23 22 21 20 18 16 13 11 11 12 14 15 14 13 13 13 12 12 13 13 12 10 8 8 8 8 7 7 8 7 7 7 8 8 9 9 8
31 31 31 31 32 31 30 29 27 26 25 24 23 23 22 22 21 21 21 21 21 21 21 20 20 19 19 18 17 16 16 16 16 15 14 13 12 10 10 12 15 18 19 19 20 21 22 22 23 22 20 18 16 14 10 10 12 13 14 14 14 13 13 13 12 13 13 13 11 9 9 9 9 9 9 9 9 9 8 9 9 10 11 13 12
30 31 31 31 32 31 31 29 28 27 25 24 23 22 22 21 21 20 20 19 19 19 19 20 19 19 18 17 17 16 16 17 16 15 14 14 12 11 11 12 15 18 18 19 20 21 22 22 22 21 19 17 15 12 9 9 12 13 13 13 13 14 14 14 13 13 13 12 10 8 8 10 11 12 13 12 12 12 11 11 12 11 12 12 11
30 30 30 31 32 31 31 29 28 27 26 24 23 22 21 21 20 19 18 17 17 17 18 18 18 18 18 17 16 16 17 17 17 16 15 14 13 12 11 12 14 16 18 18 19 21 22 21 21 20 18 16 13 10 7 9 11 12 12 13 13 14 14 14 14 14 14 12 11 9 9 12 13 14 14 13 13 13 13 12 13 13 12 11 10
29 30 30 31 32 31 31 30 28 27 25 24 22 21 20 20 19 18 17 16 16 16 16 16 16 17 17 16 16 16 16 17 17 16 15 14 13 12 12 12 13 14 16 18 18 20 21 21 20 19 17 14 11 9 7 8 11 11 12 13 14 15 16 15 15 15 15 13 12 10 11 15 15 14 14 14 13 14 14 13 14 15 13 11 12
27 30 30 31 31 31 31 29 28 26 25 23 22 21 20 19 18 17 16 15 14 14 14 14 14 15 15 15 15 15 16 16 16 16 15 15 14 12 12 12 12 13 15 17 17 19 21 22 21 19 16 13 11 8 7 7 10 11 12 13 14 16 17 16 16 15 15 14 12 11 11 14 15 14 14 13 14 14 14 13 14 15 14 13 13
25 29 30 31 31 31 30 29 27 25 24 23 22 21 20 19 18 17 15 14 13 12 12 12 13 13 14 14 14 15 15 16 16 16 16 15 14 13 13 13 12 13 14 16 17 18 21 23 22 19 16 13 10 8 7 6 10 11 11 13 14 16 17 15 15 14 13 13 13 12 10 11 12 13 13 13 14 15 14 14 14 14 14 14 14
25 28 30 31 31 31 30 27 26 24 23 22 22 21 20 19 17 16 15 14 13 12 11 11 12 12 13 14 14 14 15 15 15 16 16 15 14 13 13 13 13 13 14 15 17 19 22 24 22 19 16 13 10 8 6 7 10 11 11 12 14 15 16 15 14 13 12 12 12 12 11 10 11 12 13 13 14 14 14 14 14 14 13 14 14
26 28 29 31 31 30 29 27 24 22 22 21 21 20 19 18 17 16 15 14 13 13 12 11 11 11 12 13 14 14 14 14 15 15 15 15 14 13 13 14 13 14 14 15 17 20 23 24 22 19 16 13 10 8 6 7 9 10 10 11 13 14 15 15 14 13 12 12 11 11 11 10 10 10 11 12 12 13 14 14 14 13 13 13 14
27 28 29 30 30 30 29 27 25 23 22 20 19 18 18 18 17 16 15 15 14 13 13 11 11 11 13 14 14 14 14 14 15 15 15 15 14 13 13 14 14 15 14 15 18 22 24 24 22 19 16 13 10 8 6 7 8 9 10 11 12 13 14 15 14 13 13 12 12 11 11 10 10 9 10 11 11 12 13 13 13 12 13 13 13
27 29 29 30 30 29 28 27 26 24 23 21 19 18 17 17 16 16 16 15 15 14 13 11 11 13 13 14 14 14 14 14 15 15 15 15 14 13 13 14 15 16 16 16 19 22 24 24 22 18 15 13 10 7 6 6 7 8 9 10 12 13 14 14 14 13 12 12 12 11 11 11 10 10 11 11 11 11 11 11 11 11 12 12 12
28 29 29 29 30 28 28 27 26 24 23 23 21 20 18 17 17 16 15 14 15 14 13 12 13 14 14 14 13 13 14 14 15 15 15 15 15 13 13 14 15 16 17 17 19 23 23 23 21 18 15 12 10 7 5 4 6 8 9 10 11 13 13 13 14 13 12 11 11 11 11 11 11 11 11 10 10 9 10 10 10 11 11 11 11
28 29 29 29 29 27 27 26 25 24 24 23 22 21 19 18 17 16 15 14 15 14 13 14 15 16 15 14 13 13 13 13 14 15 15 15 15 14 14 15 15 16 17 18 19 22 23 23 21 19 15 12 9 7 5 3 4 7 8 8 10 11 11 11 12 12 11 11 10 10 10 11 10 10 10 9 9 8 8 9 9 10 10 10 10
28 28 28 28 28 27 27 26 25 24 24 24 23 22 21 20 18 17 16 16 16 15 15 16 17 16 14 13 12 11 11 11 12 14 15 15 15 14 14 15 16 17 18 18 19 21 23 23 21 19 16 12 9 7 5 3 3 5 5 7 8 9 9 10 11 12 10 9 9 8 8 9 9 9 9 9 9 8 8 8 8 9 9 9 9
29 30 30 29 29 28 27 26 25 25 24 24 23 23 22 21 20 19 18 18 17 15 16 17 17 15 13 12 11 11 10 10 10 11 13 15 15 15 15 15 16 17 17 18 19 21 23 23 21 19 16 13 10 8 6 4 2 2 3 5 6 7 8 9 10 11 10 9 9 8 7 8 8 8 8 8 8 8 8 8 8 8 8 8 8
30 32 31 30 29 29 27 26 25 24 24 23 23 23 22 21 20 20 19 19 17 17 17 18 17 15 13 12 11 10 10 9 9 9 11 14 15 15 15 15 16 17 17 18 19 20 22 23 21 19 17 14 11 9 7 5 2 0 2 4 5 6 7 8 9 9 10 10 9 8 7 7 6 6 6 6 6 7 7 7 7 8 8 7 7
29 33 31 31 30 29 28 26 25 24 24 23 23 22 22 22 21 20 19 18 18 18 18 19 18 15 14 13 11 10 10 10 9 9 10 12 15 15 15 14 16 17 17 18 19 20 21 21 20 19 18 15 13 10 8 5 3 2 2 3 5 5 6 6 7 7 8 9 9 8 7 6 5 5 5 5 6 6 6 6 6 7 7 7 7
28 32 31 30 30 29 27 26 25 23 22 22 22 22 22 22 21 20 19 19 19 19 20 20 18 15 14 13 11 10 11 12 10 9 11 12 14 15 14 14 15 16 17 18 19 20 20 19 19 19 19 17 14 11 9 6 4 3 2 3 5 6 5 5 5 5 6 8 7 7 6 5 4 4 4 5 5 5 5 5 5 6 6 6 6
28 32 30 29 28 27 25 24 23 22 22 22 22 21 21 21 21 20 20 19 19 20 20 20 18 15 14 13 11 10 11 13 11 10 11 13 13 13 13 13 15 16 17 18 18 19 19 18 18 19 19 18 15 11 8 7 5 4 4 4 6 7 5 4 4 5 6 6 6 5 5 4 4 4 3 3 4 4 4 4 4 4 4 4 5
26 28 25 25 25 25 23 23 23 22 23 22 22 21 21 21 20 21 20 19 19 20 20 19 17 15 14 12 10 11 13 13 12 11 12 13 13 13 12 13 15 16 16 18 19 19 19 18 18 19 19 18 16 13 10 7 5 4 4 5 7 7 6 4 3 4 5 5 4 4 4 3 3 3 3 2 2 2 2 3 3 3 3 3 4
21 21 20 20 22 23 23 23 22 23 22 21 21 21 20 21 20 20 19 19 19 19 19 18 17 16 14 12 12 13 13 13 12 12 12 12 13 12 11 12 14 16 17 19 19 19 19 18 18 18 18 17 16 14 12 9 6 4 3 4 6 6 6 4 4 4 3 3 3 3 3 3 2 2 2 2 2 2 2 2 3 3 3 3 3
17 18 20 21 22 24 24 23 22 22 22 21 21 20 20 20 20 19 19 19 19 18 18 17 16 15 14 13 14 14 12 12 12 12 12 12 12 11 10 11 13 15 17 19 20 19 18 18 18 17 17 15 15 14 12 10 6 4 2 3 6 6 6 5 3 3 2 2 3 3 3 2 2 1 1 1 2 3 3 3 4 4 4 3 3
16 16 19 21 25 27 24 22 22 22 22 21 20 20 19 19 19 19 19 19 18 18 17 16 15 14 14 14 15 15 13 13 13 12 12 11 11 11 11 12 14 16 18 20 20 20 19 19 18 18 16 15 14 13 12 10 7 4 4 5 6 6 5 4 2 1 1 1 2 2 2 2 2 1 1 2 4 4 4 4 4 4 4 4 4
14 13 15 20 23 25 24 22 23 23 23 23 22 20 19 19 19 19 20 19 17 18 17 16 15 14 14 15 15 15 14 13 13 13 12 11 11 11 11 13 14 16 18 20 21 20 20 20 19 18 16 15 13 12 10 9 6 5 5 6 7 6 4 2 1 1 0 1 1 2 2 2 2 2 3 4 5 5 6 6 5 4 4 4 4
15 13 14 20 21 21 23 24 25 25 25 24 22 21 21 20 19 20 20 19 18 18 17 16 15 15 15 15 15 15 15 14 13 13 12 11 11 12 12 13 15 16 17 19 20 20 19 19 19 17 16 15 13 12 10 8 8 6 5 7 8 7 4 3 2 1 1 1 1 1 1 1 2 3 4 4 3 5 6 6 6 5 4 5 5
15 15 12 15 19 19 22 23 23 25 25 25 24 24 23 22 21 21 22 20 19 19 17 15 14 14 14 14 14 14 15 14 13 13 13 12 12 14 14 14 15 14 14 17 18 18 18 17 16 15 14 14 12 11 9 9 9 8 6 7 8 6 4 4 3 2 2 1 1 1 2 2 2 4 5 4 3 4 4 5 6 5 6 7 7
17 19 14 14 19 21 23 22 22 24 25 26 25 24 23 22 22 23 23 22 20 19 17 15 14 14 15 15 14 14 14 13 14 14 14 13 14 15 15 14 13 13 13 14 15 15 15 15 13 13 12 11 11 10 9 9 9 8 7 7 7 5 4 4 4 3 4 2 1 2 3 2 2 3 4 5 4 4 3 5 7 7 8 10 11
22 23 21 20 22 22 22 21 23 25 26 26 25 23 24 23 24 24 24 22 20 20 18 16 15 15 16 16 15 15 14 13 14 15 15 14 15 15 14 13 12 11 11 12 12 13 13 13 12 11 10 10 11 10 9 9 8 8 7 7 6 5 5 5 5 4 4 3 2 3 3 2 2 2 3 4 4 4 4 6 8 8 10 11 12
22 20 18 18 19 18 19 21 23 25 25 26 25 25 26 25 24 25 25 23 21 20 19 18 17 17 17 16 16 16 15 14 15 16 15 15 16 14 13 12 12 10 10 10 11 12 12 12 12 12 11 10 10 9 9 8 8 8 7 6 6 6 6 5 5 5 4 3 3 4 3 2 2 3 3 3 3 4 5 7 7 7 8 9 10
17 16 15 15 15 16 20 24 24 24 26 25 26 27 26 25 25 26 26 23 22 21 20 20 19 18 17 17 17 17 17 15 16 16 16 16 15 14 13 13 13 11 11 11 12 13 13 13 12 13 12 10 9 9 8 8 8 8 7 7 6 7 6 6 5 4 4 3 3 3 3 4 4 4 3 3 4 4 5 7 7 6 5 5 6
14 15 16 16 18 19 21 25 23 22 26 26 27 28 25 25 26 26 25 24 23 22 22 21 20 19 17 17 18 18 18 17 17 17 17 17 16 15 14 14 14 13 12 12 13 14 15 14 13 14 13 11 9 8 8 8 9 9 8 7 7 6 6 6 6 5 5 4 4 4 4 5 5 4 3 3 4 4 5 6 7 6 4 3 3
15 16 19 19 20 19 20 26 23 19 24 28 28 29 26 26 27 26 25 25 23 22 22 22 20 20 18 18 19 19 18 18 18 18 17 18 18 17 15 15 16 15 14 14 14 14 14 14 14 14 14 13 11 9 8 9 10 10 9 8 7 7 7 7 6 6 6 5 5 5 5 6 5 4 4 2 3 4 5 6 7 6 4 2 2
17 18 21 20 19 20 23 30 29 24 28 27 26 29 29 29 30 28 26 25 24 23 23 22 21 20 19 19 20 20 19 18 17 17 18 19 19 18 16 15 16 15 15 14 13 14 14 14 14 14 13 12 12 11 9 10 11 11 10 9 8 8 8 7 7 6 7 7 6 5 6 7 5 4 4 2 2 4 5 6 6 5 4 3 2
18 19 21 20 20 23 26 30 32 30 25 18 20 28 30 30 29 28 25 23 23 23 23 22 21 20 19 19 19 19 18 17 16 16 18 19 19 18 16 16 16 15 15 15 14 15 15 14 15 15 13 11 10 10 10 11 12 12 11 11 10 10 9 8 8 8 8 8 7 5 6 7 6 5 6 4 3 3 4 5 5 5 4 4 3
18 17 18 17 19 23 24 27 31 29 22 18 19 27 31 29 27 25 24 22 22 23 23 21 20 19 18 18 17 17 17 17 16 16 17 18 18 17 15 16 16 16 16 16 16 15 16 15 15 15 13 12 10 10 11 12 12 12 11 11 10 10 9 9 9 9 9 8 7 6 6 7 7 7 8 6 4 4 4 4 5 5 5 4 4
16 16 16 14 17 20 20 21 24 24 22 23 23 26 30 28 26 25 24 22 22 23 23 22 20 19 19 18 17 16 17 18 17 17 17 16 16 17 16 15 15 16 17 17 16 16 16 15 15 15 13 13 12 11 12 12 12 11 11 10 10 10 9 9 10 10 9 8 8 7 6 7 8 8 8 7 6 5 4 4 4 5 5 4 4
15 15 14 11 14 16 14 15 18 19 21 27 28 27 29 28 27 26 24 23 24 24 25 24 22 21 20 19 17 16 17 17 16 16 16 15 15 16 17 15 14 16 17 17 16 16 17 16 15 15 13 11 11 11 13 14 12 11 10 8 8 8 9 11 11 8 8 7 8 8 8 9 9 8 8 7 7 6 5 4 4 5 4 4 4
14 14 12 10 13 14 12 14 18 19 22 30 32 28 28 27 25 24 25 26 26 26 26 25 23 22 20 18 17 17 17 17 16 16 16 15 15 15 17 16 15 16 17 16 16 17 18 17 15 14 13 11 9 11 13 15 14 12 11 9 6 5 7 10 11 8 7 7 8 8 9 10 9 8 8 7 7 6 5 5 4 4 4 4 4
13 13 12 12 14 16 15 17 21 21 24 29 30 27 26 26 24 24 26 26 26 26 24 23 22 21 18 17 18 17 16 16 17 17 17 16 15 15 16 16 15 15 16 17 17 18 18 16 14 13 12 11 10 11 12 14 16 15 13 12 10 6 4 5 10 9 8 9 9 8 9 10 10 9 8 7 7 7 6 5 4 4 4 4 4
12 13 11 9 12 15 16 19 23 22 24 26 25 26 27 26 27 27 26 26 26 24 22 21 21 20 17 17 17 17 17 16 17 18 18 17 16 15 16 16 16 16 17 18 18 18 16 14 14 13 12 12 11 11 11 13 16 15 15 15 13 10 6 5 7 9 8 11 12 10 10 10 10 9 9 8 8 7 6 5 4 3 4 4 4
13 14 11 7 8 12 13 17 23 23 24 25 25 27 28 28 29 27 26 26 25 23 21 20 20 19 18 17 18 18 18 18 17 18 18 18 17 16 17 17 17 17 17 18 19 17 15 15 15 14 12 12 12 11 11 13 14 13 14 15 14 13 10 7 8 11 10 10 14 14 14 12 11 10 10 10 9 8 7 5 4 4 4 4 4
14 14 11 10 11 13 14 18 24 25 24 26 27 28 26 26 29 28 26 25 25 24 22 20 18 19 19 18 18 19 20 19 18 19 18 18 18 17 17 17 18 18 18 19 19 17 15 15 14 13 12 12 12 12 12 12 14 13 13 14 14 13 11 10 11 14 12 11 14 15 16 16 14 12 11 10 9 9 7 5 4 5 4 3 5
14 13 13 13 14 16 17 20 25 28 27 26 27 27 25 24 25 27 25 25 25 24 22 20 18 18 19 19 18 19 20 19 18 19 18 18 18 17 17 18 19 19 18 18 18 17 16 14 13 13 13 13 12 12 12 13 14 14 14 13 12 12 11 11 12 12 13 13 13 14 17 16 14 12 11 10 9 8 7 6 6 5 3 4 5
Wind_Direction
173 171 169 168 170 169 167 164 159 155 152 151 151 152 154 156 157 156 155 153 151 151 150 148 147 147 145 144 142 141 139 136 131 123 116 109 103 97 94 91 90 90 91 99 106 106 105 106 104 103 101 100 99 100 100 100 103 104 104 102 99 97 96 96 96 98 99 98 96 94 92 90 88 89 89 89 89 89 89 90 90 91 90 89 89
167 168 168 169 170 168 168 164 159 155 152 152 152 153 155 157 158 157 155 153 153 152 151 149 149 148 148 146 144 142 140 136 130 122 115 107 101 97 95 94 92 93 91 97 107 109 108 109 108 107 105 103 100 100 100 102 103 100 99 98 97 94 94 95 95 97 96 94 93 93 92 91 90 90 91 92 91 89 88 88 88 89 89 90 88
165 166 168 170 171 169 168 164 159 155 153 153 153 155 156 157 159 158 156 154 154 153 152 151 152 152 150 148 146 145 142 138 132 126 118 109 103 99 96 97 96 97 94 97 108 111 110 111 112 110 108 107 104 102 100 100 100 98 97 98 98 96 95 95 96 94 91 88 86 86 86 88 92 94 96 97 95 91 89 87 85 84 87 89 88
166 165 169 171 171 169 167 164 160 156 154 155 154 156 157 157 158 159 158 157 156 154 154 154 155 154 152 150 148 147 145 140 135 129 122 114 107 103 99 98 100 101 98 101 110 114 113 114 115 112 110 110 108 107 104 100 99 99 99 101 100 98 97 96 95 91 88 87 85 81 76 79 93 98 101 102 99 97 95 92 88 85 85 87 87
168 167 171 171 171 170 167 164 160 157 155 156 156 157 157 157 157 160 160 158 157 157 157 157 158 156 154 151 150 150 147 143 138 134 127 118 110 107 102 100 103 104 101 104 113 116 116 117 118 116 115 113 110 109 106 104 104 103 103 106 103 100 97 92 86 82 83 86 88 85 77 79 95 100 102 103 102 102 98 95 95 91 87 86 83
171 171 173 172 171 170 168 164 160 158 157 158 158 158 157 157 158 160 161 160 159 159 160 160 159 158 156 153 152 152 149 145 141 138 131 122 114 111 106 105 107 109 107 109 115 118 117 119 121 120 119 116 111 108 105 105 107 109 112 110 104 99 93 85 80 76 71 72 80 85 82 83 97 105 104 102 102 107 104 100 100 97 91 87 85
175 175 175 173 171 170 168 164 161 160 159 160 159 158 157 157 158 160 162 162 162 162 162 161 160 159 157 155 155 154 152 148 144 142 135 127 120 116 114 111 111 113 114 115 120 122 121 123 123 121 120 116 112 107 104 104 109 116 116 106 98 96 93 84 75 69 62 60 67 78 86 94 105 109 107 107 104 111 119 117 113 109 105 98 92
178 178 176 174 172 170 168 165 163 161 161 162 160 159 157 157 158 160 162 163 165 164 163 162 161 160 159 158 157 157 156 151 148 145 140 134 126 124 121 114 114 119 119 121 126 128 127 125 123 121 118 115 112 110 109 112 117 114 104 97 95 95 91 82 71 61 53 52 56 67 86 106 111 112 111 112 110 113 128 134 130 122 118 112 97
180 178 176 175 172 170 169 167 164 163 163 163 162 161 160 160 160 160 161 163 165 163 162 163 163 163 162 162 160 160 159 155 152 149 147 142 134 132 124 111 110 118 121 124 130 132 130 127 125 121 117 114 111 110 115 121 117 106 97 94 92 90 84 76 67 55 48 45 49 66 88 106 113 116 114 114 114 114 123 131 136 124 107 93 74
181 178 177 176 173 171 170 168 166 166 165 164 163 162 162 162 162 161 161 163 162 161 162 163 165 166 166 165 164 164 163 159 156 155 154 147 141 138 128 115 111 118 125 127 132 135 132 129 127 122 118 115 113 112 118 120 109 102 97 92 86 81 74 66 58 49 45 43 49 70 90 105 109 105 102 107 108 107 112 110 112 112 99 91 81
181 179 179 176 174 172 171 170 170 169 167 165 163 161 162 163 163 163 163 163 160 160 162 164 166 166 168 168 167 168 167 164 161 160 159 154 150 146 137 124 116 121 129 132 135 138 136 133 130 124 121 119 115 116 121 116 104 98 92 85 77 69 63 56 50 47 44 45 54 74 91 102 102 97 96 97 98 99 103 100 99 105 105 105 102
181 181 180 177 175 173 172 173 173 173 171 166 163 162 163 163 164 164 164 162 160 161 162 164 165 166 167 168 168 169 170 168 165 164 164 160 157 155 144 131 121 124 132 136 139 140 140 137 132 128 125 122 119 123 126 111 99 93 85 76 67 60 55 51 49 47 45 48 56 68 90 99 95 92 93 93 93 94 96 95 94 97 100 104 104
181 181 180 178 175 174 175 176 176 176 173 169 166 165 166 167 167 165 164 162 163 163 163 164 165 166 167 168 167 168 170 170 168 167 168 165 163 160 149 139 130 129 133 139 142 142 143 140 135 131 127 125 125 131 129 108 96 87 78 70 63 56 51 52 53 48 47 50 53 60 81 93 93 92 91 90 89 92 96 94 91 94 95 96 99
182 181 180 178 176 175 177 178 179 178 175 173 171 171 172 173 170 167 165 164 165 163 164 166 166 167 168 168 167 167 169 170 169 169 170 168 167 164 153 146 139 135 134 139 144 143 145 143 137 134 130 131 135 143 139 113 92 81 74 69 63 57 52 53 55 50 48 49 50 53 66 81 89 94 90 87 88 89 92 91 88 93 96 97 100
187 183 180 178 176 177 179 181 181 179 178 177 176 177 178 177 174 172 170 169 166 165 167 169 168 169 169 169 169 169 169 170 170 171 172 171 170 167 159 153 147 141 137 139 145 146 146 145 140 137 136 140 148 155 148 114 87 78 74 70 64 59 54 51 54 53 51 49 50 50 56 71 79 87 87 84 85 86 87 87 86 89 93 95 94
190 184 179 177 178 178 180 182 182 181 181 181 181 182 182 180 177 176 175 174 171 171 173 173 172 172 172 171 172 170 169 171 171 172 174 173 171 169 164 159 153 147 141 139 144 148 147 146 142 141 142 148 160 163 147 110 89 83 79 72 64 60 55 51 54 56 54 52 54 53 54 64 71 75 79 79 78 80 83 85 86 89 91 91 87
188 183 179 178 180 180 181 182 183 183 185 185 186 186 184 183 181 180 179 180 179 178 179 179 180 180 179 176 175 173 170 171 170 172 175 174 170 169 167 163 159 151 145 140 145 150 149 147 146 145 146 155 169 167 143 111 98 93 85 72 63 59 53 49 52 55 54 55 56 56 56 59 63 67 72 77 76 76 79 82 85 88 89 90 88
184 181 180 181 182 182 183 182 183 186 188 189 189 189 187 186 184 184 184 186 184 184 184 183 188 187 184 180 176 175 173 173 171 172 176 172 169 168 166 165 162 154 148 143 146 152 152 150 148 148 151 162 176 166 142 118 105 96 81 70 61 54 50 47 49 52 51 52 52 52 53 51 53 55 60 67 70 73 77 80 81 82 84 86 86
180 180 181 183 184 184 184 183 186 187 190 191 191 191 191 191 187 188 189 188 188 188 188 188 191 183 177 176 173 172 174 175 172 175 177 171 168 169 166 166 164 157 151 146 148 154 155 153 151 151 156 168 179 167 139 113 100 88 72 63 53 46 46 45 45 46 46 47 48 48 48 46 45 46 50 56 58 63 68 73 77 77 77 80 84
178 181 182 184 185 185 185 186 188 188 191 192 193 192 191 193 191 192 192 191 192 190 190 190 186 175 168 165 163 165 169 174 173 174 176 169 168 172 169 168 166 160 155 150 151 157 158 156 154 154 160 170 177 167 140 100 80 74 64 54 42 39 43 43 42 43 41 40 44 48 48 46 46 47 50 53 54 54 57 60 64 69 71 72 79
180 182 183 185 185 184 186 188 189 189 192 193 194 193 191 192 192 193 193 195 194 192 193 188 179 171 166 164 164 165 165 172 173 172 174 168 167 171 171 170 169 164 158 153 153 159 162 159 157 158 165 172 171 165 149 114 68 64 55 42 30 29 37 41 40 39 39 37 39 46 49 49 49 49 48 50 52 51 53 55 55 60 65 65 68
182 182 185 186 183 184 187 188 189 189 191 193 194 192 191 191 191 193 194 194 194 194 193 185 179 172 169 169 169 168 167 172 173 175 177 168 166 170 170 171 171 167 160 156 153 158 163 162 161 162 169 173 169 168 161 150 95 64 43 28 20 18 28 38 39 35 36 36 38 45 50 51 50 50 48 49 54 54 54 55 57 60 65 67 68
185 186 187 187 185 186 187 188 189 188 189 192 192 192 192 190 191 194 194 192 193 195 191 185 180 174 174 174 171 171 168 171 173 178 179 169 167 169 169 170 172 171 164 158 154 155 162 166 165 167 174 175 171 171 169 169 146 65 22 14 13 11 16 26 31 30 32 32 33 39 47 52 52 55 54 53 56 58 58 59 62 63 67 71 72
189 189 189 188 187 187 187 188 188 187 187 189 190 191 191 190 191 194 193 192 192 192 189 185 182 179 180 178 177 178 174 173 173 174 176 170 169 169 169 171 172 174 168 160 156 154 159 167 170 172 177 177 176 174 172 177 185 313 348 359 4 8 8 11 18 23 27 24 24 28 34 46 52 57 57 57 57 54 55 59 62 61 63 66 70
192 191 191 190 189 189 189 190 189 188 187 187 189 190 189 190 191 192 193 193 192 190 188 188 185 184 185 182 181 183 188 191 181 171 171 172 172 169 169 172 175 177 173 165 159 156 155 163 170 176 179 179 182 180 176 188 210 248 316 340 345 355 1 4 11 16 17 17 19 21 21 31 45 56 54 56 56 55 57 59 63 63 64 64 69
195 192 193 193 192 191 191 191 189 187 186 187 188 189 189 191 191 191 194 196 194 191 190 190 187 187 188 184 182 188 199 198 184 169 168 170 171 170 169 171 175 178 176 169 163 160 158 160 166 173 180 181 186 190 187 197 216 235 281 309 318 329 337 345 359 1 1 6 12 18 18 18 32 49 52 55 56 54 59 61 68 71 71 69 70
197 196 196 196 194 193 192 192 190 187 186 188 190 190 192 194 193 193 196 198 195 193 193 192 190 191 190 187 190 200 203 193 179 170 165 166 170 173 173 172 175 178 178 173 166 164 163 165 167 173 182 185 189 197 196 199 217 237 267 289 299 308 310 316 340 346 353 1 3 11 20 19 26 40 46 52 55 55 57 62 70 73 72 70 70
199 196 195 196 195 194 193 193 191 190 190 190 192 193 196 197 196 197 200 200 196 195 195 195 195 193 192 196 200 201 197 188 178 170 163 162 166 170 173 171 174 177 178 174 169 168 168 171 174 178 185 189 191 197 198 202 216 232 255 283 294 297 299 307 338 347 357 5 8 17 26 28 28 34 41 46 53 61 65 71 82 83 81 76 75
192 188 193 198 198 197 195 196 194 193 193 193 195 198 201 201 201 202 202 202 200 198 198 199 199 195 198 206 203 197 193 188 180 171 166 163 163 168 171 172 174 176 177 175 172 171 174 178 180 184 189 192 195 198 202 210 216 217 238 286 293 293 299 314 339 351 1 17 33 33 29 36 38 33 36 46 60 67 71 78 83 85 85 81 80
185 186 198 203 204 203 199 200 199 198 199 198 200 203 205 206 206 205 206 206 204 203 202 202 203 200 204 207 202 200 196 189 183 177 175 172 170 174 178 177 175 174 174 174 175 176 180 185 186 190 193 197 199 199 205 211 207 203 220 278 287 290 298 311 328 343 7 35 42 34 33 45 56 67 65 82 88 80 74 75 74 77 79 77 75
184 186 199 203 206 206 202 203 204 204 205 205 206 208 211 214 211 209 210 209 207 207 207 207 208 207 207 204 201 201 197 191 187 184 185 183 181 181 180 176 173 172 173 175 179 181 186 191 192 194 197 199 202 200 204 207 207 214 232 256 272 280 290 300 310 330 24 54 48 52 63 67 76 95 99 103 105 98 85 78 73 75 79 79 85
185 187 200 204 205 206 205 206 207 206 206 208 210 211 215 220 220 218 215 212 211 214 213 212 211 208 206 202 201 200 196 190 189 191 192 189 188 184 176 171 169 170 174 177 181 185 190 194 195 197 198 200 204 204 203 208 220 235 239 246 256 265 276 277 266 272 44 68 79 82 81 85 91 101 112 119 118 104 87 75 66 66 78 88 95
195 185 195 206 204 206 208 209 209 207 207 209 211 213 215 217 221 223 223 219 217 217 216 214 211 208 205 201 201 199 195 191 189 193 195 191 189 182 173 168 171 175 177 179 182 187 192 195 196 198 201 202 203 203 204 216 230 235 234 242 248 254 262 252 234 218 200 124 107 98 108 120 127 139 136 128 117 98 78 62 55 56 74 87 93
203 180 186 209 207 208 211 212 212 208 207 210 215 219 215 213 214 218 223 224 221 218 215 213 211 210 209 207 206 202 197 194 193 196 198 196 189 179 173 171 173 176 177 178 180 184 189 192 193 196 199 199 199 200 208 225 232 228 225 234 241 245 247 236 221 200 183 155 136 133 134 141 150 158 150 135 123 106 81 56 57 68 86 94 97
207 192 194 208 207 209 211 214 212 209 210 213 219 222 218 215 213 214 219 223 223 220 216 212 210 213 216 216 213 208 201 196 198 201 201 202 195 182 178 179 176 171 170 174 176 177 185 190 189 192 193 194 200 207 215 223 225 223 221 226 232 230 221 217 214 194 178 171 165 148 137 138 142 158 158 152 147 126 108 87 83 89 95 99 100
210 203 203 203 203 208 213 217 215 212 215 218 221 221 219 217 215 216 218 222 224 222 218 214 213 216 221 223 220 214 208 201 201 203 202 205 201 189 184 187 184 174 171 177 182 183 190 195 193 194 196 199 207 212 214 215 216 215 212 212 210 204 202 206 207 196 182 179 169 155 150 147 141 145 151 158 158 143 136 123 108 99 96 98 100
214 213 213 210 208 215 223 224 223 221 222 223 222 220 218 215 217 220 220 223 224 223 221 218 218 220 222 225 223 218 214 208 204 202 202 204 202 194 191 195 193 189 189 189 192 191 193 197 195 196 199 205 210 208 206 207 205 203 200 198 191 186 196 205 203 198 197 193 180 175 180 183 169 159 153 164 167 159 160 148 133 119 105 101 102
213 215 217 219 218 220 224 224 225 229 232 232 226 221 218 215 220 225 225 225 224 224 224 222 222 223 224 225 222 219 216 213 207 204 204 205 204 200 199 204 203 205 209 204 199 194 192 198 202 203 200 201 206 205 206 207 199 196 195 191 185 183 189 202 207 204 211 219 210 206 209 203 186 169 165 185 186 175 177 168 159 153 134 119 114
208 210 214 221 220 216 220 223 225 234 236 233 228 223 220 217 221 228 230 228 225 224 226 228 228 226 227 224 220 218 216 216 210 206 208 209 207 205 206 210 212 215 216 211 205 200 198 202 208 207 198 191 195 201 205 207 201 195 192 185 181 188 192 202 211 211 221 231 229 234 230 212 189 176 182 201 198 186 189 187 180 179 166 148 140
202 210 215 222 223 216 218 222 227 237 229 224 226 224 220 217 219 226 229 231 229 225 227 231 231 230 229 223 218 216 217 218 212 208 212 213 211 211 211 213 215 217 219 217 212 208 208 211 211 206 198 192 189 192 198 202 199 190 186 186 185 190 195 202 207 209 220 227 230 246 239 213 191 191 196 204 204 188 187 193 193 193 184 174 174
200 209 215 221 225 220 220 223 225 225 215 216 226 225 221 216 218 223 225 230 230 227 229 231 232 234 230 222 216 216 218 219 217 213 214 214 213 215 216 216 215 214 217 220 218 214 214 216 212 202 199 200 192 186 191 198 195 187 184 185 185 187 192 199 199 206 224 226 223 239 237 215 201 204 200 195 200 186 183 189 196 205 198 190 192
204 210 216 220 223 221 223 224 224 219 204 207 228 227 225 219 217 223 224 227 230 228 230 231 233 234 229 222 218 217 218 219 220 218 215 214 214 217 219 218 216 215 217 218 216 214 213 212 208 200 193 198 199 191 191 193 193 195 191 178 174 180 190 198 196 204 219 219 215 220 225 214 205 203 197 189 187 188 190 191 200 210 205 202 200
213 216 217 219 222 222 223 223 227 227 206 196 214 215 217 217 215 221 223 225 231 231 232 234 235 234 230 227 223 221 221 221 220 216 215 216 216 220 221 219 219 218 218 217 214 211 211 208 205 203 192 187 194 194 194 197 196 200 192 174 176 185 190 201 202 204 208 207 207 208 209 202 196 197 194 187 188 200 209 203 204 204 203 209 209
219 219 216 217 221 220 223 224 230 236 217 205 212 208 206 207 207 215 221 225 231 232 235 235 232 231 231 230 227 223 224 228 225 216 214 216 217 220 218 217 220 220 219 218 218 216 214 210 204 203 198 189 189 186 191 200 201 203 196 180 181 187 193 203 205 207 206 203 207 208 200 189 188 195 195 190 192 205 219 212 204 202 203 211 214
220 218 220 226 226 221 225 227 229 237 224 212 214 210 202 198 201 210 217 222 228 231 232 231 227 226 228 227 225 222 225 231 228 218 215 215 216 216 215 217 220 219 216 219 224 223 218 214 207 201 199 200 198 189 190 197 199 208 216 203 186 193 209 207 201 208 207 199 202 204 199 189 189 199 200 196 196 203 210 201 201 204 200 207 217
219 218 227 239 238 231 231 229 228 236 227 215 214 212 201 194 197 207 214 218 222 226 228 226 226 225 223 221 221 222 226 228 224 218 215 216 215 212 212 217 219 217 218 221 221 219 214 210 207 203 199 203 209 205 201 198 196 202 217 228 229 236 234 209 199 199 192 190 195 197 197 193 194 203 203 199 198 198 196 193 201 207 204 209 218
215 211 220 233 235 235 238 236 233 231 220 213 213 211 201 193 194 204 212 215 219 223 225 226 230 231 223 218 219 220 223 223 218 213 213 214 213 211 214 217 216 214 217 218 214 212 211 206 204 205 201 201 206 214 214 205 200 199 206 220 234 249 270 230 212 204 190 188 192 192 191 192 196 201 203 200 197 195 195 201 212 213 221 228 227
207 204 205 216 226 230 237 239 238 230 216 211 209 205 201 198 200 205 209 213 218 221 222 224 232 234 225 218 218 217 217 217 214 210 210 211 209 209 212 213 210 209 210 211 209 207 206 203 202 203 203 206 207 213 218 214 208 204 203 212 225 233 257 274 242 231 215 189 187 193 186 189 199 195 193 192 190 194 199 213 231 225 226 231 232
208 207 198 188 207 219 220 227 234 229 215 209 205 201 202 206 210 211 210 213 218 221 222 224 228 229 224 219 218 216 213 213 211 209 208 208 206 205 206 205 204 204 204 204 205 204 203 203 202 199 200 205 209 212 216 220 220 216 209 211 221 229 243 258 234 232 235 202 193 196 185 186 198 191 186 185 183 191 202 212 226 226 230 227 221
213 209 201 183 187 200 200 210 223 223 215 210 207 205 209 214 216 218 218 218 220 222 225 227 226 224 222 219 219 216 213 213 211 206 205 204 203 203 202 200 199 200 200 201 201 202 203 205 203 201 203 205 210 213 212 218 225 228 221 216 221 226 234 241 222 220 231 223 211 200 186 187 194 189 186 185 184 190 193 194 194 199 215 214 202
214 206 208 199 188 190 197 206 214 218 218 214 212 213 219 224 224 226 228 227 225 226 228 228 225 224 222 219 218 216 213 214 212 206 203 201 198 199 198 196 197 198 199 199 200 202 203 205 205 205 207 211 214 214 213 215 223 232 231 225 226 232 243 251 239 230 230 227 222 205 189 190 195 193 187 181 183 186 173 167 169 168 176 180 183